| time (UTC) | temp F | wind direction | speed MPH | gust MPH | rain 1hr in | rain 24hr in | rain mn in | humidity % | barometer mb |
| 20260505003934 | 82 | 229 | 17.0 | 31.0 | 0.00 | 0.00 | 0.00 | 13 | 1001.1 |
| 20260505003431 | 82 | 231 | 25.0 | 28.0 | 0.00 | 0.00 | 0.00 | 13 | 1001.2 |
| 20260505002927 | 82 | 239 | 25.0 | 27.0 | 0.00 | 0.00 | 0.00 | 13 | 1001.1 |
| 20260505002423 | 82 | 230 | 20.0 | 22.0 | 0.00 | 0.00 | 0.00 | 12 | 1001.3 |
| 20260505001922 | 83 | 227 | 10.0 | 26.0 | 0.00 | 0.00 | 0.00 | 12 | 1001.4 |
| 20260505001419 | 83 | 235 | 18.0 | 26.0 | 0.00 | 0.00 | 0.00 | 12 | 1001.4 |
| 20260505000916 | 83 | 228 | 13.0 | 25.0 | 0.00 | 0.00 | 0.00 | 12 | 1001.4 |
| 20260505000414 | 83 | 240 | 15.0 | 32.0 | 0.00 | 0.00 | 0.00 | 13 | 1001.4 |
| 20260504235911 | 83 | 249 | 14.0 | 30.0 | 0.00 | 0.00 | 0.00 | 13 | 1001.3 |
| 20260504235408 | 83 | 250 | 10.0 | 23.0 | 0.00 | 0.00 | 0.00 | 19 | 1001.4 |
| 20260504234904 | 83 | 236 | 12.0 | 20.0 | 0.00 | 0.00 | 0.00 | 19 | 1001.4 |
| 20260504234402 | 84 | 237 | 10.0 | 22.0 | 0.00 | 0.00 | 0.00 | 19 | 1001.3 |
| 20260504233858 | 84 | 229 | 11.0 | 20.0 | 0.00 | 0.00 | 0.00 | 17 | 1001.4 |
| 20260504233354 | 84 | 234 | 14.0 | 22.0 | 0.00 | 0.00 | 0.00 | 18 | 1001.6 |
| 20260504232850 | 84 | 224 | 12.0 | 21.0 | 0.00 | 0.00 | 0.00 | 19 | 1001.3 |
| 20260504232348 | 83 | 230 | 9.0 | 18.0 | 0.00 | 0.00 | 0.00 | 20 | 1001.3 |
| 20260504231844 | 84 | 250 | 12.0 | 19.0 | 0.00 | 0.00 | 0.00 | 21 | 1001.4 |
| 20260504231341 | 84 | 234 | 10.0 | 15.0 | 0.00 | 0.00 | 0.00 | 22 | 1001.4 |
| 20260504230837 | 84 | 225 | 11.0 | 22.0 | 0.00 | 0.00 | 0.00 | 21 | 1001.6 |
| 20260504230335 | 84 | 226 | 21.0 | 24.0 | 0.00 | 0.00 | 0.00 | 20 | 1001.6 |
| 20260504225834 | 84 | 244 | 14.0 | 18.0 | 0.00 | 0.00 | 0.00 | 20 | 1001.8 |
| 20260504225330 | 84 | 230 | 11.0 | 18.0 | 0.00 | 0.00 | 0.00 | 19 | 1001.8 |
| 20260504224827 | 83 | 255 | 17.0 | 24.0 | 0.00 | 0.00 | 0.00 | 19 | 1001.6 |
| 20260504224324 | 85 | 224 | 16.0 | 22.0 | 0.00 | 0.00 | 0.00 | 18 | 1001.7 |
| 20260504223821 | 85 | 232 | 9.0 | 25.0 | 0.00 | 0.00 | 0.00 | 18 | 1001.9 |
| 20260504223316 | 85 | 235 | 9.0 | 22.0 | 0.00 | 0.00 | 0.00 | 18 | 1001.9 |
| 20260504222813 | 85 | 230 | 14.0 | 29.0 | 0.00 | 0.00 | 0.00 | 17 | 1002.0 |
| 20260504222310 | 85 | 236 | 20.0 | 24.0 | 0.00 | 0.00 | 0.00 | 17 | 1002.1 |
| 20260504221809 | 85 | 250 | 10.0 | 17.0 | 0.00 | 0.00 | 0.00 | 19 | 1002.1 |
| 20260504221305 | 85 | 247 | 19.0 | 28.0 | 0.00 | 0.00 | 0.00 | 19 | 1002.1 |
| 20260504220802 | 85 | 245 | 20.0 | 23.0 | 0.00 | 0.00 | 0.00 | 18 | 1001.9 |
| 20260504220258 | 85 | 231 | 19.0 | 28.0 | 0.00 | 0.00 | 0.00 | 18 | 1002.4 |
| 20260504215756 | 86 | 246 | 7.0 | 22.0 | 0.00 | 0.00 | 0.00 | 19 | 1002.1 |
| 20260504215252 | 85 | 269 | 4.0 | 23.0 | 0.00 | 0.00 | 0.00 | 17 | 1002.0 |
| 20260504214748 | 87 | 224 | 23.0 | 23.0 | 0.00 | 0.00 | 0.00 | 18 | 1002.2 |
| 20260504214245 | 86 | 237 | 17.0 | 22.0 | 0.00 | 0.00 | 0.00 | 19 | 1002.3 |
| 20260504213742 | 85 | 229 | 9.0 | 20.0 | 0.00 | 0.00 | 0.00 | 19 | 1002.3 |
| 20260504213238 | 84 | 248 | 18.0 | 26.0 | 0.00 | 0.00 | 0.00 | 19 | 1002.3 |
| 20260504212735 | 84 | 252 | 16.0 | 25.0 | 0.00 | 0.00 | 0.00 | 21 | 1002.4 |
| 20260504212231 | 85 | 253 | 11.0 | 20.0 | 0.00 | 0.00 | 0.00 | 20 | 1002.6 |
| 20260504211729 | 86 | 229 | 15.0 | 24.0 | 0.00 | 0.00 | 0.00 | 18 | 1002.6 |
| 20260504211225 | 85 | 232 | 19.0 | 24.0 | 0.00 | 0.00 | 0.00 | 19 | 1002.9 |
| 20260504210723 | 85 | 244 | 12.0 | 26.0 | 0.00 | 0.00 | 0.00 | 21 | 1003.0 |
| 20260504210220 | 85 | 243 | 7.0 | 24.0 | 0.00 | 0.00 | 0.00 | 20 | 1002.9 |
| 20260504205717 | 84 | 243 | 12.0 | 25.0 | 0.00 | 0.00 | 0.00 | 21 | 1003.1 |
| 20260504205215 | 85 | 275 | 12.0 | 27.0 | 0.00 | 0.00 | 0.00 | 21 | 1003.2 |
| 20260504204712 | 84 | 242 | 13.0 | 28.0 | 0.00 | 0.00 | 0.00 | 21 | 1003.3 |
| 20260504204211 | 84 | 252 | 13.0 | 23.0 | 0.00 | 0.00 | 0.00 | 21 | 1003.2 |
| 20260504203710 | 85 | 248 | 16.0 | 30.0 | 0.00 | 0.00 | 0.00 | 19 | 1003.4 |
| 20260504203207 | 85 | 247 | 10.0 | 22.0 | 0.00 | 0.00 | 0.00 | 19 | 1003.6 |
| 20260504202706 | 85 | 216 | 11.0 | 32.0 | 0.00 | 0.00 | 0.00 | 19 | 1003.6 |
| 20260504202204 | 84 | 229 | 11.0 | 21.0 | 0.00 | 0.00 | 0.00 | 20 | 1003.7 |
| 20260504201701 | 84 | 257 | 5.0 | 21.0 | 0.00 | 0.00 | 0.00 | 22 | 1003.6 |
| 20260504201158 | 84 | 238 | 14.0 | 21.0 | 0.00 | 0.00 | 0.00 | 22 | 1003.8 |
| 20260504200656 | 84 | 244 | 13.0 | 27.0 | 0.00 | 0.00 | 0.00 | 22 | 1003.9 |
| 20260504200152 | 84 | 243 | 17.0 | 24.0 | 0.00 | 0.00 | 0.00 | 22 | 1003.9 |
| 20260504195648 | 84 | 243 | 12.0 | 17.0 | 0.00 | 0.00 | 0.00 | 23 | 1004.0 |
| 20260504195144 | 84 | 254 | 24.0 | 27.0 | 0.00 | 0.00 | 0.00 | 21 | 1004.0 |
| 20260504194641 | 84 | 255 | 6.0 | 20.0 | 0.00 | 0.00 | 0.00 | 23 | 1004.2 |
| 20260504194137 | 84 | 265 | 11.0 | 20.0 | 0.00 | 0.00 | 0.00 | 22 | 1004.1 |
| 20260504193633 | 83 | 262 | 16.0 | 24.0 | 0.00 | 0.00 | 0.00 | 22 | 1004.2 |
| 20260504193132 | 83 | 250 | 8.0 | 24.0 | 0.00 | 0.00 | 0.00 | 23 | 1004.4 |
| 20260504192629 | 83 | 240 | 17.0 | 19.0 | 0.00 | 0.00 | 0.00 | 23 | 1004.2 |
| 20260504192127 | 83 | 240 | 15.0 | 26.0 | 0.00 | 0.00 | 0.00 | 23 | 1004.6 |
| 20260504191626 | 82 | 267 | 8.0 | 20.0 | 0.00 | 0.00 | 0.00 | 23 | 1004.6 |
| 20260504191121 | 83 | 273 | 5.0 | 14.0 | 0.00 | 0.00 | 0.00 | 23 | 1004.3 |
| 20260504190617 | 83 | 240 | 16.0 | 25.0 | 0.00 | 0.00 | 0.00 | 23 | 1004.8 |
| 20260504190114 | 83 | 252 | 10.0 | 24.0 | 0.00 | 0.00 | 0.00 | 22 | 1004.4 |
| 20260504185611 | 82 | 278 | 5.0 | 16.0 | 0.00 | 0.00 | 0.00 | 24 | 1004.8 |
| 20260504185107 | 83 | 234 | 16.0 | 23.0 | 0.00 | 0.00 | 0.00 | 23 | 1004.8 |
| 20260504184603 | 83 | 276 | 5.0 | 16.0 | 0.00 | 0.00 | 0.00 | 23 | 1004.9 |
| 20260504184058 | 83 | 267 | 5.0 | 21.0 | 0.00 | 0.00 | 0.00 | 23 | 1005.1 |
| 20260504183556 | 82 | 259 | 9.0 | 16.0 | 0.00 | 0.00 | 0.00 | 25 | 1005.2 |
| 20260504183054 | 83 | 244 | 13.0 | 24.0 | 0.00 | 0.00 | 0.00 | 24 | 1005.1 |
| 20260504182550 | 83 | 256 | 9.0 | 22.0 | 0.00 | 0.00 | 0.00 | 23 | 1005.4 |
| 20260504182048 | 82 | 285 | 6.0 | 20.0 | 0.00 | 0.00 | 0.00 | 24 | 1005.4 |
| 20260504181545 | 82 | 256 | 12.0 | 23.0 | 0.00 | 0.00 | 0.00 | 23 | 1005.7 |
| 20260504181043 | 82 | 289 | 8.0 | 26.0 | 0.00 | 0.00 | 0.00 | 24 | 1005.6 |
| 20260504180542 | 82 | 280 | 8.0 | 16.0 | 0.00 | 0.00 | 0.00 | 24 | 1005.7 |
| 20260504180040 | 82 | 316 | 6.0 | 21.0 | 0.00 | 0.00 | 0.00 | 24 | 1005.7 |
| 20260504175537 | 82 | 250 | 8.0 | 22.0 | 0.00 | 0.00 | 0.00 | 23 | 1005.8 |
| 20260504175034 | 81 | 273 | 7.0 | 22.0 | 0.00 | 0.00 | 0.00 | 23 | 1006.0 |
| 20260504174532 | 83 | 271 | 9.0 | 16.0 | 0.00 | 0.00 | 0.00 | 23 | 1006.0 |
| 20260504174028 | 82 | 246 | 18.0 | 21.0 | 0.00 | 0.00 | 0.00 | 23 | 1006.0 |
| 20260504173525 | 82 | 241 | 9.0 | 20.0 | 0.00 | 0.00 | 0.00 | 24 | 1006.1 |
| 20260504173023 | 82 | 267 | 13.0 | 26.0 | 0.00 | 0.00 | 0.00 | 23 | 1006.3 |
| 20260504172519 | 82 | 292 | 12.0 | 18.0 | 0.00 | 0.00 | 0.00 | 23 | 1006.1 |
| 20260504172015 | 81 | 246 | 12.0 | 19.0 | 0.00 | 0.00 | 0.00 | 24 | 1006.3 |
| 20260504171512 | 81 | 248 | 13.0 | 23.0 | 0.00 | 0.00 | 0.00 | 24 | 1006.2 |
| 20260504171009 | 81 | 249 | 13.0 | 24.0 | 0.00 | 0.00 | 0.00 | 23 | 1006.4 |
| 20260504170505 | 82 | 263 | 8.0 | 20.0 | 0.00 | 0.00 | 0.00 | 23 | 1006.4 |
| 20260504160426 | 78 | 267 | 8.0 | 17.0 | 0.00 | 0.00 | 0.00 | 28 | 1006.8 |
| 20260504150849 | 73 | 257 | 9.0 | 17.0 | 0.00 | 0.00 | 0.00 | 39 | 1007.1 |
| 20260504150345 | 72 | 296 | 5.0 | 17.0 | 0.00 | 0.00 | 0.00 | 39 | 1007.1 |
| 20260504141316 | 65 | 282 | 6.0 | 14.0 | 0.00 | 0.00 | 0.00 | 51 | 1007.4 |
| 20260504140812 | 64 | 268 | 6.0 | 13.0 | 0.00 | 0.00 | 0.00 | 52 | 1007.3 |
| 20260504140308 | 64 | 251 | 6.0 | 10.0 | 0.00 | 0.00 | 0.00 | 53 | 1007.1 |
| 20260504130737 | 60 | 232 | 14.0 | 16.0 | 0.00 | 0.00 | 0.00 | 59 | 1006.8 |
| 20260504130233 | 59 | 238 | 7.0 | 17.0 | 0.00 | 0.00 | 0.00 | 59 | 1006.7 |
| 20260504120156 | 59 | 236 | 13.0 | 14.0 | 0.00 | 0.00 | 0.00 | 60 | 1006.0 |
| 20260504110624 | 59 | 221 | 9.0 | 23.0 | 0.00 | 0.00 | 0.00 | 60 | 1006.1 |
| 20260504110120 | 59 | 237 | 20.0 | 24.0 | 0.00 | 0.00 | 0.00 | 60 | 1006.1 |
| 20260504100545 | 59 | 235 | 12.0 | 20.0 | 0.00 | 0.00 | 0.00 | 59 | 1006.6 |
| 20260504081939 | 61 | 223 | 24.0 | 30.0 | 0.00 | 0.00 | 0.00 | 52 | 1007.2 |
| 20260504081436 | 61 | 229 | 20.0 | 28.0 | 0.00 | 0.00 | 0.00 | 52 | 1007.2 |
| 20260504080932 | 61 | 222 | 13.0 | 23.0 | 0.00 | 0.00 | 0.00 | 51 | 1007.3 |
| 20260504080429 | 61 | 221 | 18.0 | 26.0 | 0.00 | 0.00 | 0.00 | 51 | 1007.3 |
| 20260504070357 | 60 | 215 | 7.0 | 16.0 | 0.00 | 0.00 | 0.00 | 48 | 1008.6 |
| 20260504050738 | 60 | 206 | 4.0 | 10.0 | 0.00 | 0.00 | 0.00 | 43 | 1009.3 |
| 20260504050236 | 59 | 198 | 5.0 | 11.0 | 0.00 | 0.00 | 0.00 | 44 | 1009.3 |
| 20260504045733 | 59 | 194 | 5.0 | 9.0 | 0.00 | 0.00 | 0.00 | 44 | 1009.3 |
| 20260504045227 | 60 | 210 | 5.0 | 11.0 | 0.00 | 0.00 | 0.00 | 43 | 1009.7 |
| 20260504044726 | 60 | 191 | 5.0 | 11.0 | 0.00 | 0.00 | 0.00 | 43 | 1009.6 |
| 20260504044223 | 60 | 197 | 7.0 | 13.0 | 0.00 | 0.00 | 0.00 | 43 | 1009.6 |
| 20260504043720 | 60 | 204 | 4.0 | 11.0 | 0.00 | 0.00 | 0.00 | 43 | 1009.6 |
| 20260504043216 | 61 | 195 | 8.0 | 10.0 | 0.00 | 0.00 | 0.00 | 42 | 1009.5 |
| 20260504042714 | 61 | 202 | 7.0 | 10.0 | 0.00 | 0.00 | 0.00 | 41 | 1009.6 |
| 20260504042210 | 62 | 207 | 9.0 | 10.0 | 0.00 | 0.00 | 0.00 | 41 | 1009.8 |
| 20260504041707 | 62 | 187 | 6.0 | 12.0 | 0.00 | 0.00 | 0.00 | 41 | 1009.7 |
| 20260504041202 | 62 | 197 | 6.0 | 9.0 | 0.00 | 0.00 | 0.00 | 40 | 1009.8 |
| 20260504040659 | 61 | 181 | 7.0 | 10.0 | 0.00 | 0.00 | 0.00 | 40 | 1009.6 |
| 20260504040156 | 61 | 193 | 9.0 | 11.0 | 0.00 | 0.00 | 0.00 | 40 | 1009.8 |
| 20260504035653 | 61 | 194 | 7.0 | 8.0 | 0.00 | 0.00 | 0.00 | 41 | 1009.8 |
| 20260504035150 | 61 | 207 | 5.0 | 6.0 | 0.00 | 0.00 | 0.00 | 41 | 1009.8 |
| 20260504034647 | 61 | 182 | 2.0 | 7.0 | 0.00 | 0.00 | 0.00 | 40 | 1009.7 |
| 20260504034144 | 62 | 189 | 5.0 | 7.0 | 0.00 | 0.00 | 0.00 | 40 | 1009.7 |
| 20260504033642 | 62 | 199 | 8.0 | 9.0 | 0.00 | 0.00 | 0.00 | 39 | 1010.1 |
| 20260504033139 | 63 | 176 | 5.0 | 10.0 | 0.00 | 0.00 | 0.00 | 38 | 1009.7 |
| 20260504032636 | 63 | 192 | 5.0 | 10.0 | 0.00 | 0.00 | 0.00 | 37 | 1009.8 |
| 20260504032133 | 63 | 200 | 6.0 | 9.0 | 0.00 | 0.00 | 0.00 | 38 | 1009.8 |
| 20260504031630 | 63 | 196 | 5.0 | 8.0 | 0.00 | 0.00 | 0.00 | 38 | 1009.8 |
| 20260504031126 | 64 | 193 | 3.0 | 9.0 | 0.00 | 0.00 | 0.00 | 38 | 1009.6 |
| 20260504030623 | 64 | 206 | 4.0 | 8.0 | 0.00 | 0.00 | 0.00 | 37 | 1009.5 |
| 20260504030120 | 64 | 195 | 4.0 | 8.0 | 0.00 | 0.00 | 0.00 | 37 | 1009.6 |
| 20260504025617 | 65 | 208 | 5.0 | 10.0 | 0.00 | 0.00 | 0.00 | 37 | 1009.8 |
| 20260504025114 | 66 | 207 | 4.0 | 8.0 | 0.00 | 0.00 | 0.00 | 36 | 1009.7 |
| 20260504024611 | 66 | 204 | 4.0 | 7.0 | 0.00 | 0.00 | 0.00 | 35 | 1009.6 |
| 20260504024107 | 67 | 206 | 5.0 | 8.0 | 0.00 | 0.00 | 0.00 | 35 | 1009.5 |
| 20260504023604 | 67 | 205 | 4.0 | 10.0 | 0.00 | 0.00 | 0.00 | 34 | 1009.6 |
| 20260504023100 | 68 | 209 | 7.0 | 9.0 | 0.00 | 0.00 | 0.00 | 34 | 1009.6 |
| 20260504022556 | 68 | 211 | 8.0 | 10.0 | 0.00 | 0.00 | 0.00 | 34 | 1009.6 |
| 20260504022052 | 68 | 206 | 3.0 | 10.0 | 0.00 | 0.00 | 0.00 | 33 | 1009.5 |
| 20260504021550 | 69 | 220 | 5.0 | 10.0 | 0.00 | 0.00 | 0.00 | 33 | 1009.3 |
| 20260504021047 | 69 | 211 | 7.0 | 11.0 | 0.00 | 0.00 | 0.00 | 32 | 1009.3 |
| 20260504020544 | 70 | 201 | 5.0 | 11.0 | 0.00 | 0.00 | 0.00 | 32 | 1009.3 |
| 20260504020040 | 70 | 195 | 7.0 | 11.0 | 0.00 | 0.00 | 0.00 | 32 | 1009.2 |
| 20260504015537 | 71 | 225 | 7.0 | 11.0 | 0.00 | 0.00 | 0.00 | 31 | 1009.3 |
| 20260504015032 | 71 | 218 | 9.0 | 13.0 | 0.00 | 0.00 | 0.00 | 31 | 1009.3 |
| 20260504014529 | 72 | 225 | 12.0 | 15.0 | 0.00 | 0.00 | 0.00 | 30 | 1009.3 |
| 20260504014026 | 72 | 230 | 9.0 | 13.0 | 0.00 | 0.00 | 0.00 | 30 | 1009.0 |
| 20260504013524 | 73 | 226 | 9.0 | 19.0 | 0.00 | 0.00 | 0.00 | 30 | 1009.0 |
| 20260504013021 | 73 | 229 | 8.0 | 21.0 | 0.00 | 0.00 | 0.00 | 29 | 1009.0 |
| 20260504012518 | 73 | 226 | 9.0 | 21.0 | 0.00 | 0.00 | 0.00 | 29 | 1009.2 |
| 20260504012016 | 74 | 213 | 9.0 | 20.0 | 0.00 | 0.00 | 0.00 | 29 | 1009.1 |
| 20260504011512 | 74 | 222 | 11.0 | 23.0 | 0.00 | 0.00 | 0.00 | 29 | 1009.2 |
| 20260504011008 | 74 | 224 | 14.0 | 24.0 | 0.00 | 0.00 | 0.00 | 28 | 1009.3 |
| 20260504010504 | 74 | 199 | 10.0 | 24.0 | 0.00 | 0.00 | 0.00 | 27 | 1009.2 |
| 20260504010000 | 75 | 214 | 13.0 | 20.0 | 0.00 | 0.00 | 0.00 | 27 | 1009.2 |
| 20260504005457 | 75 | 215 | 13.0 | 23.0 | 0.00 | 0.00 | 0.00 | 26 | 1009.0 |
| 20260504004955 | 75 | 233 | 13.0 | 29.0 | 0.00 | 0.00 | 0.00 | 26 | 1009.2 |
| 20260504004452 | 75 | 225 | 15.0 | 24.0 | 0.00 | 0.00 | 0.00 | 27 | 1009.2 |